Tracking 20083 objects as of 8-Dec-2019
HD Live streaming from Space Station
objects crossing your sky now

PSLV DEB

Track PSLV DEB now!
10-day predictions


NORAD ID: 27255
Int'l Code: 2001-049HB
Perigee: 574.8 km
Apogee: 636.7 km
Inclination: 97.9 °
Period: 96.7 minutes
Semi major axis: 6976 km
RCS: 0.0078 m2 (small)
Launch date: October 22, 2001
Source: India (IND)
Launch site: SRIHARIKOTA (SRI)

Note: This is SATELLITE DEBRIS
aabbcc
Your satellite tracking list
Your tracking list is empty




NASA's NSSDC Master Catalog

Two Line Element Set (TLE):
1 27255U 01049HB  19341.91923468 +.00000513 +00000-0 +58549-4 0  9999
2 27255 097.9004 319.3970 0044387 059.7783 001.5035 14.89790846969531
Source of the keplerian elements: AFSPC